Location: Limoges
(45.8500°N, 1.2500°E)
Time: 00:31:43
(UTC+02:00)

ISS - Pass Details

Date: 04 June 2020
Orbit: 419 x 420 km, 51.6° (Epoch: 19 September)

Event Time Altitude Azimuth Distance (km) Brightness Sun altitude
Rises 22:21:27 0° 285° (WNW) 2,377 1.4 -6.4°
Reaches altitude 10° 22:24:25 10° 256° (WSW) 1,509 -0.4 -6.8°
Maximum altitude 22:26:04 13° 227° (SW) 1,334 -1.1 -7.0°
Drops below altitude 10° 22:27:42 10° 198° (SSW) 1,506 -1.2 -7.2°
Enters shadow 22:29:42 - 176° (S) 2,044 -0.7 -7.5°
